Preview of NWS' New Version of Forecast
This preview is not operational and should not be used for support decisions.

Regional Weather Roundup (RWR)

Issued by National Weather Service (NWS)

                            
000
ASUS45 KBOI 221310
RWRID 

IDAHO REGIONAL WEATHER ROUNDUP
NATIONAL WEATHER SERVICE BOISE ID
600 AM MST FRI FEB 22 2019

NOTE: "FAIR" INDICATES FEW OR NO CLOUDS BELOW 12000 FEET
WITH NO SIGNIFICANT WEATHER AND/OR OBSTRUCTIONS TO VISIBILITY

IDZ012-014-221400-
SOUTHWEST IDAHO

  
CITY           SKY/WX    TMP DP  RH WIND       PRES   REMARKS
BOISE          CLEAR     13   9  84 CALM      30.02R                  
CALDWELL       CLEAR     16  13  88 NE3       30.06R                  
$$

IDZ016-017-221400-
SOUTHCENTRAL IDAHO

  
CITY           SKY/WX    TMP DP  RH WIND       PRES   REMARKS
BURLEY         CLOUDY    20  16  84 W7        29.93S WCI  11          
JEROME         CLOUDY    21  18  88 SW9       29.95S WCI  11          
TWIN FALLS     MOCLDY    17  15  92 SW6       29.95R WCI   9          
$$

IDZ019>023-221400-
SOUTHEAST IDAHO

  
CITY           SKY/WX    TMP DP  RH WIND       PRES   REMARKS
IDAHO FALLS    CLEAR     -5 -10  79 W6        29.91R WCI -18          
POCATELLO      PTCLDY    -2  -7  79 SW7       29.95R WCI -15          
REXBURG        CLEAR     -5 -10  79 CALM      29.88R                  
$$

IDZ006-010-011-018-031-032-221400-
CENTRAL IDAHO MOUNTAINS

  
CITY           SKY/WX    TMP DP  RH WIND       PRES   REMARKS
MCCALL         CLEAR     -8 -12  83 CALM      29.88R FOG              
HAILEY         CLEAR      3  -4  72 NW10      29.90R WCI -12          
STANLEY          N/A    -18 -27  63 CALM      29.89R                  
SALMON         CLEAR      2  -3  80 CALM      30.03R                  
CHALLIS        CLEAR     -5 -10  79 CALM      29.94R                  
$$

IDZ002-004-006-007-026-221400-
NORTHERN IDAHO

  
CITY           SKY/WX    TMP DP  RH WIND       PRES   REMARKS
LEWISTON       CLOUDY    20  14  77 S6        30.13F WCI  12          
LOWELL           N/A     24  18  77 S8        30.13R WCI  15          
COEUR D'ALENE  CLOUDY    10   7  87 SW5       30.04F WCI   2          
MULLAN PASS    CLOUDY     9   5  84 CALM      29.79S                  
$$